Regional Weather Roundup
Issued by NWS Cleveland, OH

Home | Current Version | Previous Version | Graphics & Text | Print | Product List | Glossary On
Versions: 1 2 3 4 5 6 7 8 9 10 11 12 13 14 15 16 17 18 19 20 21 22 23 24 25 26 27 28 29 30 31 32 33 34 35 36 37 38 39 40 41 42 43 44 45 46 47 48 49 50
000
ASUS41 KCLE 220710
RWRCLE
OHIO REGIONAL WEATHER ROUNDUP
NATIONAL WEATHER SERVICE CLEVELAND, OH
300 AM EDT MON SEP 22 2014

NOTE: "FAIR" INDICATES FEW OR NO CLOUDS BELOW 12,000 FEET WITH NO
SIGNIFICANT WEATHER AND/OR OBSTRUCTIONS TO VISIBILITY.

OHZ001>008-015>018-024>027-034-035-043-044-220800-
   NORTHWEST OHIO

CITY           SKY/WX    TMP DP  RH WIND       PRES   REMARKS
DEFIANCE       CLOUDY   N/A N/A N/A N10       30.09R
FINDLAY        CLOUDY    50  45  83 N12       30.05S
TOLEDO EXPRESS CLOUDY    48  41  76 N10       30.07R
TOLEDO EXEC    CLOUDY    50  41  71 NW14      30.08R
LIMA           PTCLDY    49  45  86 NW8       30.06S
$$

OHZ009>014-019>023-028>033-038-089-220800-
   NORTHEAST OHIO

CITY           SKY/WX    TMP DP  RH WIND       PRES   REMARKS
CLE-HOPKINS    LGT RAIN  53  48  83 NW14      30.02R
CLE-LAKEFRONT  CLOUDY    56  46  69 NW20G26   29.98R
CUY CO. ARPT   NOT AVBL
LORAIN-ELYRIA  CLOUDY    56  46  69 N14G23    30.02R
ASHTABULA      LGT RAIN  51  48  89 NW9       29.96R FOG
AKRON-CANTON   CLOUDY    53  48  83 NW12      29.97R
WOOSTER        LGT RAIN  53  50  89 NW8       30.00S FOG
MANSFIELD      CLOUDY    50  48  93 NW14      30.02S
YOUNGSTOWN     LGT RAIN  52  49  89 NW13G24   29.94R
$$

OHZ042-051>053-060>062-070>072-077>081-220800-
  SOUTHWEST OHIO

CITY           SKY/WX    TMP DP  RH WIND       PRES   REMARKS
CINC-COVINGTON CLEAR     53  47  79 NW7       30.08S
CINC-LUNKEN    CLEAR     54  47  77 NW5       30.09S
HAMILTON       CLEAR     52  47  83 NW9       30.09S
DAYTON         CLEAR     50  47  89 NW8       30.07S
WRIGHT-PAT AFB CLEAR     52  47  84 NW9       30.06R
DAYTON GENERAL CLEAR     52  47  83 NW10      30.06R
WILMINGTON     MOCLDY    52  47  83 NW7       30.05R
$$

OHZ036-037-039>041-045>050-054>059-063>069-073>076-082>088-220800-
  CENTRAL AND SOUTHEAST OHIO

CITY           SKY/WX    TMP DP  RH WIND       PRES   REMARKS
COLUMBUS       MOCLDY    57  47  69 N7        30.02S
OSU AIRPORT    MOCLDY    53  47  79 NW8       30.02F
BOLTON FIELD   CLOUDY    54  49  82 N6        30.03S
RICKENBACK AFB CLOUDY    54  47  76 N7        30.02S
NEWARK         CLOUDY    53  47  79 NW6       30.02R
MARION         CLOUDY    53  49  86 N7        30.03S
LANCASTER      MOCLDY    54  46  74 N3        30.03S
ZANESVILLE     LGT RAIN  53  49  86 N7        30.01R FOG
NEW PHILLY     CLOUDY    54  48  80 NW9       29.99R
$$


USA.gov is the U.S. government's official web portal to all federal, state and local government web resources and services.